Wind_Speed
16 16 16 16 17 17 17 16 16 15 16 16 15 14 14 13 13 13 13 12 12 11 11 10 10 9 9 8 7 7 6 6 6 5 4 3 3 3 3 2 2 1 1
19 18 18 18 18 18 18 18 18 17 17 17 17 16 15 15 15 14 14 14 13 13 12 12 12 11 10 9 9 8 8 8 7 6 6 5 4 4 4 3 3 2 2
20 21 20 20 20 20 20 20 20 19 19 19 18 18 17 17 16 16 16 15 15 15 14 14 13 13 12 11 10 10 10 9 9 8 7 7 6 5 5 4 4 4 3
22 22 22 22 22 22 22 21 21 21 21 20 20 20 19 19 18 17 18 17 16 16 16 15 14 14 13 13 12 11 11 11 10 9 9 8 8 7 6 5 5 4 4
23 23 24 24 23 23 23 23 23 23 23 22 22 21 21 21 20 20 19 19 18 18 17 16 15 15 15 14 14 13 13 12 11 10 10 9 9 8 7 6 6 5 4
25 25 25 25 25 26 25 25 25 24 24 24 23 23 23 22 22 22 21 21 20 19 19 18 18 18 17 16 16 15 14 14 13 12 11 10 10 9 8 7 7 6 6
28 28 28 27 27 27 28 28 28 27 27 27 26 26 25 24 24 23 23 23 22 22 20 20 20 20 20 18 18 17 16 16 15 14 13 12 11 10 10 9 8 8 7
31 31 31 30 30 30 30 30 30 30 29 29 29 28 28 27 26 25 24 24 24 23 23 22 22 22 22 21 20 19 18 18 17 16 15 14 13 12 12 11 10 9 9
32 33 33 32 32 32 33 33 33 32 32 31 31 30 30 29 28 28 27 26 26 25 25 24 24 23 23 23 22 21 20 19 19 18 17 16 15 14 13 12 12 11 10
34 34 35 35 34 34 35 35 35 35 35 34 34 32 32 31 31 30 29 29 28 28 27 27 27 26 25 24 24 23 23 22 21 20 19 18 17 16 15 14 13 13 12
35 35 36 36 37 36 36 37 37 37 37 37 36 35 34 34 33 33 32 31 31 30 30 29 28 28 27 27 26 25 25 23 23 22 21 20 19 18 17 16 15 15 14
36 36 37 37 37 38 38 38 38 38 38 38 38 38 37 36 35 35 35 34 33 33 32 32 31 30 29 28 28 27 27 26 24 24 23 22 21 20 19 18 17 17 16
38 38 38 38 38 39 40 40 40 40 40 40 40 40 39 37 37 36 36 36 36 35 35 34 34 32 31 30 29 29 29 28 26 25 25 24 23 22 21 20 20 19 18
38 39 39 40 39 40 40 40 41 41 42 41 41 41 41 40 39 38 38 38 38 38 37 36 36 35 34 32 31 30 30 30 29 27 26 26 25 24 24 22 22 21 20
39 39 40 40 41 40 40 41 42 42 43 43 43 43 43 42 41 41 41 40 39 39 39 39 37 37 36 34 33 33 32 31 31 30 29 28 27 26 25 25 24 23 22
40 40 41 41 42 42 42 42 43 44 44 45 45 45 45 45 43 42 42 41 41 41 40 40 39 38 37 36 35 35 34 33 32 32 31 30 29 28 27 26 26 25 24
41 41 42 42 43 43 43 44 44 44 45 45 46 47 47 46 45 44 43 42 42 42 41 41 41 40 39 39 38 37 36 35 34 33 33 32 31 30 29 28 27 27 26
41 41 42 42 44 44 44 45 45 45 45 46 47 48 48 48 48 47 46 44 44 43 43 43 43 42 41 41 40 39 38 37 36 36 35 34 33 32 31 30 30 29 28
41 42 42 43 44 45 45 46 46 47 47 47 47 49 49 49 50 49 48 47 46 45 45 44 44 44 43 43 42 41 40 40 38 38 37 36 36 35 34 33 32 31 30
41 42 43 44 45 45 46 46 47 47 48 48 49 49 49 49 50 51 50 49 48 47 46 46 45 44 44 43 43 42 42 42 40 41 40 39 38 37 36 35 35 34 33
40 41 41 43 44 45 46 46 47 48 49 49 50 50 49 49 49 50 51 50 49 49 49 47 47 45 45 45 44 44 43 43 42 41 41 40 40 39 38 37 36 35 35
39 40 41 41 43 44 45 46 47 48 49 49 50 51 50 50 50 51 51 50 50 50 50 49 48 47 46 46 46 46 44 43 42 42 42 41 40 40 40 39 38 37 37
39 40 41 41 42 44 45 45 46 47 48 48 48 49 50 50 50 51 52 51 51 51 50 49 49 48 48 48 47 47 46 45 44 44 43 42 41 41 40 40 39 39 38
38 39 40 40 41 43 44 45 46 46 48 48 49 49 50 50 49 50 51 52 52 51 50 50 50 49 49 49 48 47 47 46 45 44 44 43 42 41 40 40 40 39 39
38 39 40 41 42 43 43 45 45 45 46 48 48 50 50 50 50 50 51 52 51 51 51 50 51 50 50 49 48 48 48 46 46 45 44 43 43 42 41 41 41 40 39
39 40 40 41 42 42 43 43 43 44 45 46 47 48 49 50 50 50 51 52 52 51 51 50 51 52 52 51 50 49 49 48 47 47 46 45 45 44 43 43 42 42 41
Wind_Direction
248 247 247 247 247 245 244 243 243 243 244 246 246 244 241 241 240 240 242 242 242 242 242 241 235 234 234 234 234 233 230 229 227 227 234 242 251 257 262 271 276 280 323
250 248 246 248 248 247 245 246 245 246 247 247 247 246 244 242 241 242 243 243 242 242 242 242 237 236 233 232 233 233 233 232 231 233 240 245 250 256 261 262 261 261 279
252 251 250 249 249 248 245 245 246 247 248 247 246 246 245 244 243 244 242 242 241 241 242 243 240 238 235 232 233 234 234 235 236 240 243 244 247 252 259 262 259 260 270
252 253 252 252 251 250 247 246 246 246 246 246 246 246 246 246 246 246 244 243 244 244 244 244 241 240 237 233 234 236 237 240 241 244 247 246 245 247 253 258 257 258 263
254 252 253 253 253 251 248 247 247 246 246 247 248 247 246 247 247 248 248 246 246 246 246 244 241 238 237 236 236 238 239 241 243 246 248 247 249 249 251 251 253 252 254
256 255 254 254 252 251 249 247 247 247 246 248 249 248 247 247 247 248 249 248 247 247 246 244 242 239 238 238 238 240 241 243 244 247 249 249 249 252 253 249 252 252 252
257 256 255 254 254 252 251 249 247 247 247 249 250 249 247 248 248 247 248 248 247 246 246 246 245 243 240 239 241 242 243 244 245 247 249 248 248 252 253 252 254 253 254
257 256 255 254 254 254 252 250 248 247 248 248 249 249 247 247 247 247 247 247 246 245 245 245 245 246 243 241 242 243 243 244 245 247 248 249 250 252 252 253 253 254 255
258 257 255 255 253 253 252 251 250 248 248 248 248 249 248 247 247 247 247 248 246 246 247 246 246 246 245 243 243 244 245 246 246 248 249 248 249 250 250 251 252 255 256
257 257 256 256 254 253 253 252 251 250 249 248 248 248 248 247 247 247 247 247 247 246 247 247 246 246 246 246 245 244 245 246 247 248 249 249 249 248 249 251 253 255 257
258 258 258 257 256 255 254 253 252 251 249 249 248 248 248 247 247 248 247 247 247 247 246 246 246 247 248 247 246 246 245 245 246 247 249 249 249 248 249 251 254 256 258
258 258 257 256 256 255 254 253 252 251 249 248 248 248 247 247 247 247 247 247 247 247 246 245 246 247 248 248 248 247 245 245 246 246 247 248 248 248 250 251 253 256 259
258 258 258 257 256 255 255 254 252 251 250 249 248 248 247 246 246 246 246 246 247 247 246 245 245 247 248 248 248 248 247 245 246 246 247 247 247 248 249 252 254 256 259
259 259 258 257 256 256 255 254 253 252 250 249 249 249 248 246 246 247 246 246 246 247 246 245 245 246 246 247 247 248 247 245 245 245 246 246 247 248 249 251 253 255 258
260 259 259 258 256 256 255 254 254 253 252 250 250 249 249 247 247 247 246 246 247 247 246 246 245 246 246 246 246 247 247 246 245 246 245 246 247 248 249 250 252 255 258
260 260 259 258 257 257 257 256 255 254 253 252 251 250 250 249 249 248 247 247 247 247 246 246 245 245 246 245 246 246 247 247 246 246 246 246 247 248 250 251 252 254 257
261 260 260 259 258 257 258 257 256 255 254 253 252 251 250 250 249 247 247 247 247 246 246 245 245 244 245 246 246 246 247 247 248 246 246 247 247 248 249 251 253 255 258
262 261 260 260 259 258 258 258 257 256 254 253 252 251 250 250 249 247 247 246 247 246 246 245 244 244 244 245 245 246 246 245 247 247 246 247 247 248 249 251 254 256 258
264 262 261 260 260 260 259 258 257 256 255 253 253 251 251 251 250 248 246 246 246 246 246 244 244 243 244 244 245 246 246 246 248 247 247 246 248 248 249 252 255 256 257
266 264 263 261 261 260 260 258 257 256 255 254 253 251 251 251 250 248 246 246 245 245 245 244 243 243 243 244 245 246 246 245 247 247 247 247 248 248 249 251 254 255 256
267 266 264 263 262 261 260 259 258 257 256 254 253 251 250 250 250 248 247 245 244 244 244 244 244 243 243 244 244 246 246 247 247 248 248 248 248 248 249 251 252 254 255
268 267 266 265 263 261 261 260 259 258 256 254 252 252 250 250 249 247 246 245 244 243 242 242 243 243 243 244 244 245 247 247 247 246 247 247 248 249 249 251 252 252 254
268 268 266 264 264 263 262 262 260 258 256 255 253 252 251 249 248 246 246 245 244 242 241 241 242 242 242 243 244 246 246 246 247 246 246 248 248 249 250 251 252 253 253
268 268 266 265 264 264 263 262 261 259 257 254 252 251 250 249 248 247 246 245 243 241 240 241 241 241 242 243 245 246 245 246 248 246 247 248 248 248 249 251 252 253 254
270 268 266 265 264 265 264 263 262 259 258 256 253 251 249 248 248 247 246 245 242 241 240 240 241 241 241 242 243 245 245 245 247 246 247 248 249 249 250 251 252 252 253
272 271 268 266 265 265 265 263 261 259 258 256 254 252 248 247 247 247 246 245 243 241 240 241 242 241 241 242 243 245 246 246 246 246 246 247 248 248 249 250 251 252 253
Height
5817 5817 5818 5819 5820 5821 5822 5824 5825 5825 5826 5828 5829 5831 5832 5833 5834 5835 5837 5838 5839 5840 5841 5842 5842 5843 5844 5845 5846 5847 5847 5848 5849 5849 5850 5850 5851 5851 5852 5852 5852 5852 5852
5813 5814 5815 5816 5817 5818 5819 5820 5822 5823 5824 5825 5826 5828 5829 5830 5832 5833 5834 5835 5836 5838 5839 5840 5841 5842 5843 5844 5844 5845 5846 5847 5847 5848 5849 5849 5850 5850 5851 5851 5852 5852 5852
5810 5810 5811 5812 5813 5814 5815 5817 5818 5819 5820 5821 5823 5824 5826 5827 5829 5830 5831 5833 5834 5835 5836 5837 5838 5840 5841 5842 5843 5844 5845 5845 5846 5847 5848 5848 5849 5849 5850 5850 5851 5851 5851
5805 5806 5807 5808 5809 5810 5811 5813 5814 5815 5816 5818 5819 5820 5822 5824 5825 5827 5828 5830 5831 5832 5834 5835 5836 5837 5838 5840 5841 5842 5843 5844 5845 5846 5846 5847 5847 5848 5848 5849 5850 5850 5850
5800 5801 5802 5803 5804 5805 5807 5808 5809 5811 5812 5813 5815 5816 5818 5819 5821 5823 5825 5826 5828 5829 5831 5832 5833 5835 5836 5837 5838 5840 5841 5842 5843 5844 5845 5845 5846 5846 5847 5848 5848 5849 5849
5794 5795 5797 5798 5799 5800 5801 5803 5804 5806 5807 5809 5810 5812 5813 5815 5817 5819 5821 5823 5824 5826 5828 5829 5830 5832 5833 5835 5836 5837 5838 5840 5841 5842 5843 5843 5844 5845 5845 5846 5847 5847 5848
5788 5789 5791 5792 5793 5794 5796 5797 5799 5801 5802 5804 5805 5807 5808 5810 5812 5814 5816 5818 5820 5822 5824 5825 5827 5828 5830 5831 5833 5834 5836 5837 5838 5839 5840 5841 5842 5842 5843 5844 5845 5845 5846
5782 5783 5784 5785 5786 5788 5789 5791 5793 5794 5796 5797 5799 5801 5803 5805 5807 5809 5811 5813 5815 5817 5819 5821 5823 5824 5826 5828 5829 5831 5832 5834 5835 5837 5838 5839 5839 5840 5841 5842 5843 5843 5844
5774 5775 5777 5778 5779 5781 5782 5784 5786 5787 5789 5791 5793 5795 5797 5799 5801 5804 5806 5808 5810 5812 5814 5816 5818 5820 5822 5823 5825 5827 5829 5830 5832 5833 5834 5836 5837 5837 5838 5839 5840 5841 5841
5766 5767 5769 5770 5772 5773 5774 5776 5778 5780 5782 5784 5786 5788 5790 5793 5795 5798 5800 5802 5805 5807 5809 5811 5813 5815 5817 5819 5821 5822 5824 5826 5828 5829 5831 5832 5833 5834 5835 5836 5837 5838 5839
5758 5759 5760 5762 5763 5764 5766 5768 5769 5771 5774 5776 5778 5780 5783 5785 5788 5791 5793 5796 5798 5801 5803 5805 5807 5809 5811 5814 5816 5817 5820 5821 5823 5825 5827 5828 5829 5831 5832 5833 5834 5835 5836
5749 5750 5751 5753 5754 5755 5757 5759 5760 5763 5765 5767 5770 5772 5774 5777 5780 5783 5786 5789 5791 5794 5796 5799 5801 5803 5805 5808 5810 5812 5814 5816 5818 5820 5822 5823 5825 5826 5828 5829 5830 5831 5832
5740 5741 5742 5743 5744 5746 5747 5749 5751 5753 5755 5758 5761 5763 5766 5768 5772 5775 5778 5781 5784 5786 5789 5792 5794 5797 5799 5802 5804 5806 5808 5810 5813 5815 5817 5819 5820 5822 5823 5825 5826 5827 5828
5730 5731 5732 5733 5734 5736 5737 5739 5741 5743 5745 5748 5751 5754 5756 5759 5762 5766 5769 5772 5775 5778 5781 5784 5787 5789 5792 5795 5797 5800 5802 5804 5807 5809 5811 5813 5815 5817 5818 5820 5821 5822 5823
5720 5721 5722 5723 5724 5726 5727 5728 5730 5733 5735 5738 5741 5744 5746 5749 5753 5756 5759 5763 5766 5769 5772 5775 5779 5782 5784 5787 5790 5793 5795 5798 5800 5802 5805 5807 5809 5811 5813 5814 5816 5817 5818
5710 5711 5711 5712 5713 5715 5716 5718 5720 5722 5724 5727 5730 5733 5736 5739 5742 5745 5749 5753 5756 5760 5763 5766 5770 5773 5776 5780 5783 5785 5788 5790 5793 5795 5798 5800 5803 5805 5807 5808 5810 5811 5813
5699 5700 5700 5701 5702 5704 5705 5707 5709 5711 5713 5716 5719 5721 5725 5728 5731 5735 5738 5742 5746 5750 5753 5757 5760 5764 5768 5771 5774 5777 5780 5783 5786 5788 5791 5793 5796 5798 5800 5802 5804 5805 5806
5688 5688 5689 5690 5691 5692 5694 5695 5697 5699 5701 5704 5706 5709 5713 5716 5719 5723 5727 5732 5735 5739 5743 5747 5750 5754 5758 5762 5765 5769 5772 5775 5778 5780 5783 5786 5788 5791 5793 5795 5797 5798 5800
5676 5677 5678 5678 5679 5680 5681 5683 5685 5686 5689 5691 5693 5696 5700 5704 5707 5711 5716 5720 5724 5728 5732 5736 5740 5744 5748 5752 5756 5760 5763 5767 5769 5772 5775 5778 5781 5783 5786 5788 5789 5791 5793
5665 5665 5666 5666 5666 5667 5668 5670 5672 5674 5676 5678 5681 5683 5687 5690 5694 5699 5703 5708 5712 5716 5721 5725 5730 5733 5738 5742 5746 5750 5754 5757 5760 5763 5766 5769 5772 5775 5777 5779 5781 5783 5785
5654 5654 5654 5654 5654 5654 5656 5657 5659 5661 5663 5665 5668 5671 5674 5678 5681 5686 5690 5695 5700 5705 5709 5714 5719 5723 5727 5731 5736 5740 5743 5747 5750 5754 5756 5760 5763 5766 5768 5771 5773 5775 5777
5643 5643 5643 5642 5642 5642 5643 5644 5646 5647 5649 5652 5654 5657 5661 5665 5668 5673 5677 5682 5687 5692 5697 5703 5708 5712 5716 5720 5725 5729 5733 5737 5740 5744 5747 5750 5753 5756 5759 5761 5764 5766 5768
5633 5632 5631 5631 5631 5631 5631 5632 5633 5634 5636 5639 5641 5644 5648 5652 5655 5660 5664 5670 5675 5680 5685 5691 5696 5701 5705 5709 5714 5719 5723 5727 5731 5734 5737 5740 5743 5746 5749 5751 5754 5756 5759
5621 5620 5620 5619 5619 5618 5618 5619 5619 5621 5623 5625 5627 5630 5634 5638 5642 5647 5651 5656 5662 5667 5673 5679 5684 5689 5694 5698 5703 5707 5712 5716 5720 5724 5727 5730 5733 5736 5739 5742 5744 5747 5749
5610 5609 5608 5607 5606 5606 5605 5605 5606 5607 5609 5611 5613 5617 5621 5625 5629 5634 5638 5643 5649 5655 5661 5666 5672 5677 5682 5687 5691 5696 5700 5704 5708 5713 5717 5720 5723 5726 5729 5732 5735 5737 5739
5599 5597 5596 5595 5594 5593 5593 5592 5593 5594 5595 5597 5600 5603 5608 5612 5616 5620 5625 5630 5636 5642 5648 5654 5659 5664 5669 5675 5679 5684 5688 5693 5697 5701 5705 5709 5712 5716 5718 5721 5724 5727 5729